map of GEO home
Great Circle Mapper logo
GEO - Airport
Location
City:  Georgetown, Guyana
Name:Cheddi Jagan International Airport
Old (Alt.):Timehri International Airport
ICAO / IATA:SYCJ / GEO

Details
Type:Airport (Aerodrome, Airfield)
Use:Public/Civil, International (customs port of entry)
Latitude:629'55"N (6.498553)
Longitude:5815'15"W (-58.254118)
Datum:WGS 1984
Elevation:95 ft (29 m)
Variation:16.29W (WMM2015 magnetic declination)
-0.06 annual change
Runways:2
Longest:7448 × 148 ft (2270 × 45 m), paved

Time
Time Zone:UTC-4
Local Time:

Weather
METAR:SYCJ 090200Z 05004KT 9999 BKN015 24/23 Q1013 NOSIG
TAF:SYCJ 081122Z 0812/0912 06010KT 9999 BKN018 SCT032
TEMPO 0815/0819 5000 SHRA
BECMG 0823/0901 05006KT 9999 SCT016

Related Locations
Nearby:
Farthest:WAWH: 12356 mi / 19884 km
H. Aroeppala Selayar [H. Aroeppala Selayar Airport], SN, ID

Find:

   beyond  
but within

Other Information
Maps:
NOTAMs:
Links:
Sources:

  
flag of Guyana   

Sectional Chart

Flight Planning
at skyvector.com

Satellite Image

Google Maps Satellite view

 

Copyright © 2004-2016 Karl L. Swartz. All rights reserved.
The Great Circle Mapper name and logo are trademarks of the Great Circle Mapper.
All other trademarks mentioned herein belong to their respective owners.
Please see credits for attibutions and further copyright information.

  Follow gcmap on Facebook Follow gcmap on Twitter Follow gcmap on Google+ GCmap on LinkedIn

hCard Microformat

Geo Microformat